Starlink 32678

operational
NORAD ID: 62309 Int'l Des: 2024-239 Owner: SPXS Country: US Constellation: starlink
LEOCIRCULAR

Über Starlink 32678

Beschreibung wird geladen...

Live-Position

3D-Globus wird geladen...

Nächste Überflüge

Höhenverlauf

Altitude vs Time

uPlot chart will show altitude changes over time

Zweizeiliger Elementsatz

1 62309U 24239J 25353.82116247 .00014401 00000-0 49753-3 0 9990
2 62309 53.1575 192.2641 0001209 87.7478 272.3661 15.30190621 57339
Epoch: 19. Dez. 2025 • Age: 15 hours

Aktueller Status

Höhe 482.5 km
Geschwindigkeit 7.62 km/s
Subsatellitenpunkt -24.04°S, 138.52°E
Startdatum 13. Dez. 2024
Alter 1 years
Typ internet

Technische Details

Klassifizierung Payload
Masse 730.00 kg
Trockenmasse 700.00 kg
Gesamtmasse 730.00 kg
Länge 0.30 m
Durchmesser 4.10 m
Spannweite 29.00 m
Form Box + pan
Hersteller SPXS
Bus-Typ Starlink V2M
Phasenstatus In Orbit
Besitzer/Staat SPXS/US

Große Konstellationen

Loading constellations...